Location: *
(28.3744°N, 81.5492°W)
Time: 03:26:28
(UTC+00:00)

CZ-4B R/B - Pass Details

Date: 15 June 2025
Orbit: 450 x 580 km, 97.8° (Epoch: 11 July)

Event Time Altitude Azimuth Distance (km) Brightness Sun altitude
Exits shadow 02:34:22 25° 241° (WSW) 1,015 4.3 -23.7°
Maximum altitude 02:35:03 26° 261° (W) 966 4.3 -23.8°
Drops below altitude 10° 02:38:03 10° 320° (NW) 1,635 6.3 -24.3°
Sets 02:40:17 0° 334° (NNW) 2,497 7.4 -24.6°
